Time,TemperatureF,DewpointF,PressureIn,WindDirection,WindDirectionDegrees,WindSpeedMPH,WindSpeedGustMPH,Humidity,HourlyPrecipIn,Conditions,Clouds,dailyrainin,SoftwareType,DateUTC
2013-06-04 00:00:00,53.7,43.0,30.51,NE,45,0.0,0.0,67,0.00,CLR,FEW,0.00,WeatherDisplay:10.37,2013-06-03 23:00:00,
2013-06-04 00:30:00,54.5,43.4,30.51,NE,45,0.0,0.0,66,0.00,CLR,FEW,0.00,WeatherDisplay:10.37,2013-06-03 23:30:00,
2013-06-04 01:00:00,54.3,42.8,30.51,NE,45,0.0,0.0,65,0.00,CLR,FEW,0.00,WeatherDisplay:10.37,2013-06-04 00:00:00,
2013-06-04 01:30:00,53.8,43.1,30.51,NE,45,0.0,0.0,67,0.00,CLR,FEW,0.00,WeatherDisplay:10.37,2013-06-04 00:30:00,
2013-06-04 02:00:00,52.7,42.4,30.50,NE,45,0.0,0.0,68,0.00,CLR,FEW,0.00,WeatherDisplay:10.37,2013-06-04 01:00:00,
2013-06-04 02:30:00,51.8,41.9,30.50,NE,45,0.0,0.0,69,0.00,CLR,FEW,0.00,WeatherDisplay:10.37,2013-06-04 01:30:00,
2013-06-04 03:00:00,52.5,43.0,30.50,NE,45,0.0,0.0,70,0.00,CLR,FEW,0.00,WeatherDisplay:10.37,2013-06-04 02:00:00,
2013-06-04 03:30:00,52.3,43.6,30.49,NE,45,0.0,0.0,72,0.00,CLR,FEW,0.00,WeatherDisplay:10.37,2013-06-04 02:30:00,
2013-06-04 04:00:00,52.2,43.8,30.48,NE,45,0.0,0.0,73,0.00,CLR,FEW,0.00,WeatherDisplay:10.37,2013-06-04 03:00:00,
2013-06-04 04:30:00,52.2,44.1,30.48,NE,45,0.0,0.0,74,0.00,CLR,FEW,0.00,WeatherDisplay:10.37,2013-06-04 03:30:00,
2013-06-04 05:00:00,52.7,45.0,30.48,NE,45,0.0,0.0,75,0.00,CLR,FEW,0.00,WeatherDisplay:10.37,2013-06-04 04:00:00,
2013-06-04 05:30:00,52.9,45.2,30.48,NE,45,0.0,0.0,75,0.00,CLR,FEW,0.00,WeatherDisplay:10.37,2013-06-04 04:30:00,
2013-06-04 06:00:00,52.9,45.5,30.48,NE,45,0.0,6.0,76,0.00,CLR,FEW,0.00,WeatherDisplay:10.37,2013-06-04 05:00:00,
2013-06-04 06:30:00,54.1,47.4,30.47,NE,45,0.0,4.0,78,0.00,CLR,FEW,0.00,WeatherDisplay:10.37,2013-06-04 05:30:00,
2013-06-04 07:00:00,56.0,48.8,30.48,NE,45,0.0,1.0,77,0.00,CLR,FEW,0.00,WeatherDisplay:10.37,2013-06-04 06:00:00,
2013-06-04 07:30:00,57.7,49.9,30.47,NE,45,0.0,0.0,75,0.00,CLR,FEW,0.00,WeatherDisplay:10.37,2013-06-04 06:30:00,
2013-06-04 08:00:00,59.5,50.9,30.47,NE,45,0.0,0.0,73,0.00,CLR,FEW,0.00,WeatherDisplay:10.37,2013-06-04 07:00:00,
2013-06-04 08:30:00,61.5,51.3,30.47,NE,45,0.0,1.0,69,0.00,CLR,FEW,0.00,WeatherDisplay:10.37,2013-06-04 07:30:00,
2013-06-04 09:00:00,62.6,51.1,30.46,NE,45,0.0,1.0,66,0.00,CLR,FEW,0.00,WeatherDisplay:10.37,2013-06-04 08:00:00,
2013-06-04 09:30:00,63.5,51.1,30.46,NE,45,0.0,2.0,64,0.00,CLR,FEW,0.00,WeatherDisplay:10.37,2013-06-04 08:30:00,
2013-06-04 10:00:00,64.4,51.1,30.46,NE,45,0.0,3.0,62,0.00,CLR,FEW,0.00,WeatherDisplay:10.37,2013-06-04 09:00:00,
2013-06-04 10:30:00,63.9,50.2,30.46,NE,45,0.0,4.0,61,0.00,CLR,FEW,0.00,WeatherDisplay:10.37,2013-06-04 09:30:00,
2013-06-04 11:00:00,64.6,50.4,30.45,NE,45,0.0,2.0,60,0.00,CLR,FEW,0.00,WeatherDisplay:10.37,2013-06-04 10:00:00,
2013-06-04 11:30:00,64.0,49.4,30.45,NE,45,0.0,2.0,59,0.00,CLR,FEW,0.00,WeatherDisplay:10.37,2013-06-04 10:30:00,
2013-06-04 12:01:00,64.8,49.6,30.45,NE,45,0.0,2.0,58,0.00,CLR,FEW,0.00,WeatherDisplay:10.37,2013-06-04 11:01:00,
2013-06-04 12:30:00,64.9,47.9,30.44,NE,45,0.0,2.0,54,0.00,CLR,FEW,0.00,WeatherDisplay:10.37,2013-06-04 11:30:00,
2013-06-04 13:00:00,66.6,47.4,30.44,NE,45,0.0,2.0,50,0.00,CLR,FEW,0.00,WeatherDisplay:10.37,2013-06-04 12:00:00,
2013-06-04 13:30:00,67.5,45.9,30.44,NE,45,0.0,2.0,46,0.00,CLR,FEW,0.00,WeatherDisplay:10.37,2013-06-04 12:30:00,
2013-06-04 14:00:00,67.5,45.9,30.43,NE,45,0.0,2.0,46,0.00,CLR,FEW,0.00,WeatherDisplay:10.37,2013-06-04 13:00:00,
2013-06-04 14:30:00,68.5,46.3,30.42,NE,45,0.0,2.0,45,0.00,CLR,FEW,0.00,WeatherDisplay:10.37,2013-06-04 13:30:00,
2013-06-04 15:00:00,69.8,46.3,30.42,NE,45,0.0,1.0,43,0.00,CLR,FEW,0.00,WeatherDisplay:10.37,2013-06-04 14:00:00,
2013-06-04 15:30:00,70.0,46.4,30.42,NE,45,0.0,1.0,43,0.00,CLR,FEW,0.00,WeatherDisplay:10.37,2013-06-04 14:30:00,
2013-06-04 16:01:00,70.3,46.8,30.41,NE,45,0.0,6.0,43,0.00,CLR,FEW,0.00,WeatherDisplay:10.37,2013-06-04 15:01:00,
2013-06-04 16:30:00,69.8,43.0,30.40,NE,45,0.0,4.0,38,0.00,CLR,FEW,0.00,WeatherDisplay:10.37,2013-06-04 15:30:00,
2013-06-04 17:01:00,69.3,41.2,30.39,NE,45,0.0,7.0,36,0.00,CLR,FEW,0.00,WeatherDisplay:10.37,2013-06-04 16:01:00,
2013-06-04 17:30:00,68.0,38.6,30.38,NE,45,0.0,8.0,34,0.00,CLR,FEW,0.00,WeatherDisplay:10.37,2013-06-04 16:30:00,
2013-06-04 18:00:00,67.5,38.8,30.37,NE,45,0.0,8.0,35,0.00,CLR,FEW,0.00,WeatherDisplay:10.37,2013-06-04 17:00:00,
2013-06-04 18:30:00,66.8,39.0,30.36,NE,45,0.0,6.0,36,0.00,CLR,FEW,0.00,WeatherDisplay:10.37,2013-06-04 17:30:00,
2013-06-04 19:01:00,64.5,37.6,30.35,NE,45,0.0,3.0,37,0.00,CLR,FEW,0.00,WeatherDisplay:10.37,2013-06-04 18:01:00,
2013-06-04 19:30:00,62.6,38.6,30.35,NE,45,0.0,4.0,41,0.00,CLR,FEW,0.00,WeatherDisplay:10.37,2013-06-04 18:30:00,
2013-06-04 20:00:00,60.4,41.1,30.34,NE,45,0.0,2.0,49,0.00,CLR,FEW,0.00,WeatherDisplay:10.37,2013-06-04 19:00:00,
2013-06-04 20:30:00,58.6,42.0,30.33,NE,45,0.0,6.0,54,0.00,CLR,FEW,0.00,WeatherDisplay:10.37,2013-06-04 19:30:00,
2013-06-04 21:00:00,58.1,39.5,30.33,NE,45,0.0,5.0,50,0.00,CLR,FEW,0.00,WeatherDisplay:10.37,2013-06-04 20:00:00,
2013-06-04 21:30:00,57.7,39.7,30.33,NE,45,0.0,0.0,51,0.00,CLR,FEW,0.00,WeatherDisplay:10.37,2013-06-04 20:30:00,
2013-06-04 22:00:00,57.4,40.4,30.33,NE,45,0.0,1.0,53,0.00,CLR,FEW,0.00,WeatherDisplay:10.37,2013-06-04 21:00:00,
2013-06-04 22:30:00,57.4,43.2,30.33,NE,45,0.0,2.0,59,0.00,CLR,FEW,0.00,WeatherDisplay:10.37,2013-06-04 21:30:00,
2013-06-04 23:00:00,57.0,43.3,30.32,NE,45,0.0,2.0,60,0.00,CLR,FEW,0.00,WeatherDisplay:10.37,2013-06-04 22:00:00,
2013-06-04 23:30:00,57.0,43.7,30.32,NE,45,0.0,5.0,61,0.00,CLR,FEW,0.00,WeatherDisplay:10.37,2013-06-04 22:30:00,